• In Uzbekistan
  • List of Countries
  • For 7 days
  • Water Temperature
  • Satellite Maps
  • Weather Map
  • Weather Widgets
  • user-avatar
    Login

    Hourly Weather Ischgl

    Today, 26 April, Wednesday

    Time Temperature Precipitation Wind Pressure Humidity
    00:00 -3°C° 0.7 mm 2 mps 566 mmHg 96%
    01:00 -4°C° 0.7 mm 3 mps 566 mmHg 96%
    02:00 -4°C° 0.5 mm 2 mps 566 mmHg 96%
    03:00 -4°C° 0.5 mm 2 mps 566 mmHg 96%
    04:00 -4°C° 0.5 mm 2 mps 565 mmHg 96%
    05:00 -4°C° 0.6 mm 2 mps 565 mmHg 96%
    06:00 -3°C° 0.6 mm 2 mps 566 mmHg 95%
    07:00 -3°C° 0.6 mm 2 mps 566 mmHg 95%
    08:00 -3°C° 0.9 mm 2 mps 566 mmHg 95%
    09:00 -2°C° 0.9 mm 2 mps 566 mmHg 95%
    10:00 -2°C° 0.9 mm 2 mps 566 mmHg 95%
    11:00 -2°C° 1.6 mm 2 mps 566 mmHg 95%
    12:00 -2°C° 1.6 mm 2 mps 567 mmHg 96%
    13:00 -2°C° 1.6 mm 2 mps 567 mmHg 96%
    14:00 0°C° 2.2 mm 1 mps 566 mmHg 97%
    15:00 0°C° 2.2 mm 1 mps 566 mmHg 97%
    16:00 -1°C° 2.2 mm 1 mps 566 mmHg 97%
    17:00 -1°C° 2.5 mm 1 mps 566 mmHg 98%
    18:00 -2°C° 2.5 mm 1 mps 566 mmHg 98%
    19:00 -3°C° 2.5 mm 1 mps 566 mmHg 98%
    20:00 -3°C° 2 mm 1 mps 566 mmHg 98%
    21:00 -3°C° 2 mm 1 mps 566 mmHg 98%
    22:00 -5°C° 2 mm 0 mps 566 mmHg 98%
    23:00 -5°C° 1.3 mm 0 mps 566 mmHg 98%

    Tomorrow, 27 April, Thursday

    Time Temperature Precipitation Wind Pressure Humidity
    00:00 -5°C° 1.3 mm 0 mps 566 mmHg 98%
    01:00 -5°C° 1.3 mm 0 mps 565 mmHg 97%
    02:00 -6°C° 0.6 mm 0 mps 565 mmHg 97%
    03:00 -6°C° 0.6 mm 1 mps 565 mmHg 97%
    04:00 -6°C° 0.6 mm 1 mps 565 mmHg 97%
    05:00 -6°C° 0.6 mm 1 mps 565 mmHg 97%
    06:00 -4°C° 0.6 mm 1 mps 566 mmHg 97%
    07:00 -3°C° 0.6 mm 1 mps 566 mmHg 97%
    08:00 -3°C° 0.8 mm 1 mps 566 mmHg 98%
    09:00 -2°C° 0.8 mm 1 mps 567 mmHg 98%
    10:00 -2°C° 0.8 mm 1 mps 567 mmHg 98%
    11:00 -4°C° 1.5 mm 2 mps 567 mmHg 98%
    12:00 -4°C° 1.5 mm 2 mps 567 mmHg 98%
    13:00 -4°C° 1.5 mm 2 mps 567 mmHg 98%
    14:00 -4°C° 1.7 mm 2 mps 566 mmHg 98%
    15:00 -4°C° 1.7 mm 2 mps 566 mmHg 98%
    16:00 -5°C° 1.7 mm 2 mps 566 mmHg 98%
    17:00 -5°C° 1.6 mm 2 mps 566 mmHg 98%
    18:00 -6°C° 1.6 mm 2 mps 565 mmHg 98%
    19:00 -6°C° 1.6 mm 2 mps 565 mmHg 98%
    20:00 -7°C° 1.4 mm 2 mps 565 mmHg 98%
    21:00 -7°C° 1.4 mm 2 mps 565 mmHg 98%
    22:00 -7°C° 1.4 mm 2 mps 565 mmHg 98%
    23:00 -8°C° 1.2 mm 2 mps 565 mmHg 98%

    Day after tomorrow, 28 April, Friday

    Time Temperature Precipitation Wind Pressure Humidity
    00:00 -8°C° 1.2 mm 2 mps 564 mmHg 98%
    01:00 -8°C° 1.2 mm 2 mps 564 mmHg 98%
    02:00 -8°C° 1.3 mm 2 mps 564 mmHg 98%
    03:00 -8°C° 1.3 mm 2 mps 564 mmHg 98%
    04:00 -9°C° 1.3 mm 2 mps 564 mmHg 98%
    05:00 -9°C° 1.5 mm 2 mps 564 mmHg 98%
    06:00 -9°C° 1.5 mm 2 mps 564 mmHg 98%
    07:00 -9°C° 1.5 mm 2 mps 564 mmHg 98%
    08:00 -8°C° 1.1 mm 2 mps 564 mmHg 98%
    09:00 -9°C° 1.1 mm 3 mps 565 mmHg 98%
    10:00 -9°C° 1.1 mm 3 mps 565 mmHg 97%
    11:00 -9°C° 0.6 mm 3 mps 566 mmHg 97%
    12:00 -7°C° 0.6 mm 2 mps 566 mmHg 97%
    13:00 -7°C° 0.6 mm 2 mps 566 mmHg 97%
    14:00 -7°C° 0.2 mm 2 mps 567 mmHg 97%
    15:00 -7°C° 0.2 mm 2 mps 567 mmHg 96%
    16:00 -7°C° 0.2 mm 2 mps 567 mmHg 96%
    17:00 -8°C° 0.1 mm 2 mps 567 mmHg 96%
    18:00 -9°C° 0.1 mm 2 mps 567 mmHg 96%
    19:00 -9°C° 0.1 mm 2 mps 567 mmHg 97%
    20:00 -10°C° 0 mm 1 mps 566 mmHg 97%
    21:00 -12°C° 0 mm 1 mps 566 mmHg 97%
    22:00 -14°C° 0 mm 1 mps 565 mmHg 98%
    23:00 -15°C° 0 mm 1 mps 565 mmHg 97%

    29 April, Saturday

    Time Temperature Precipitation Wind Pressure Humidity
    00:00 -16°C° 0 mm 1 mps 564 mmHg 97%
    01:00 -16°C° 0 mm 1 mps 564 mmHg 97%
    02:00 -17°C° 0 mm 1 mps 564 mmHg 97%
    03:00 -18°C° 0 mm 1 mps 563 mmHg 97%
    04:00 -18°C° 0 mm 1 mps 563 mmHg 97%
    05:00 -15°C° 0 mm 1 mps 565 mmHg 96%
    06:00 -12°C° 0 mm 1 mps 567 mmHg 95%
    07:00 -9°C° 0 mm 1 mps 569 mmHg 94%
    08:00 -7°C° 0 mm 1 mps 570 mmHg 94%
    09:00 -4°C° 0 mm 1 mps 570 mmHg 94%
    10:00 -3°C° 0 mm 0 mps 571 mmHg 94%
    11:00 -2°C° 0 mm 1 mps 571 mmHg 95%
    12:00 -1°C° 0 mm 1 mps 571 mmHg 95%
    13:00 -1°C° 0 mm 1 mps 571 mmHg 96%
    14:00 -1°C° 0 mm 1 mps 571 mmHg 96%
    15:00 0°C° 0 mm 1 mps 571 mmHg 96%
    16:00 0°C° 0 mm 1 mps 571 mmHg 95%
    17:00 -1°C° 0 mm 1 mps 571 mmHg 96%
    18:00 -2°C° 0 mm 1 mps 570 mmHg 96%
    19:00 -3°C° 0 mm 1 mps 570 mmHg 96%
    20:00 -4°C° 0 mm 1 mps 569 mmHg 96%
    21:00 -8°C° 0 mm 2 mps 569 mmHg 96%
    22:00 -9°C° 0 mm 2 mps 569 mmHg 96%
    23:00 -9°C° 0 mm 2 mps 569 mmHg 96%

    30 April, Sunday

    Time Temperature Precipitation Wind Pressure Humidity
    00:00 -9°C° 0 mm 2 mps 569 mmHg 96%
    01:00 -10°C° 0 mm 2 mps 569 mmHg 96%
    02:00 -10°C° 0 mm 2 mps 568 mmHg 96%
    03:00 -10°C° 0 mm 2 mps 568 mmHg 96%
    04:00 -12°C° 0 mm 2 mps 568 mmHg 96%
    05:00 -9°C° 0 mm 2 mps 568 mmHg 95%
    06:00 -8°C° 0 mm 2 mps 569 mmHg 94%
    07:00 -6°C° 0 mm 2 mps 570 mmHg 94%
    08:00 -5°C° 0 mm 2 mps 570 mmHg 94%
    09:00 -3°C° 0 mm 2 mps 571 mmHg 94%
    10:00 -2°C° 0 mm 2 mps 571 mmHg 94%
    11:00 -1°C° 0 mm 2 mps 571 mmHg 94%
    12:00 -1°C° 0 mm 2 mps 571 mmHg 93%
    13:00 +1°C° 0 mm 2 mps 571 mmHg 92%
    14:00 +1°C° 0 mm 2 mps 571 mmHg 92%
    15:00 +1°C° 0 mm 2 mps 570 mmHg 92%
    16:00 +1°C° 0 mm 2 mps 570 mmHg 92%
    17:00 -1°C° 0 mm 2 mps 570 mmHg 93%
    18:00 -2°C° 0 mm 2 mps 569 mmHg 95%
    19:00 -3°C° 0 mm 2 mps 569 mmHg 96%
    20:00 -3°C° 0 mm 2 mps 569 mmHg 96%
    21:00 -5°C° 0 mm 3 mps 569 mmHg 96%
    22:00 -6°C° 0 mm 3 mps 569 mmHg 95%
    23:00 -6°C° 0 mm 3 mps 568 mmHg 95%

    1 May, Monday

    Time Temperature Precipitation Wind Pressure Humidity
    00:00 -6°C° 0 mm 2 mps 568 mmHg 95%
    01:00 -6°C° 0 mm 2 mps 568 mmHg 94%
    02:00 -6°C° 0 mm 2 mps 568 mmHg 94%
    03:00 -7°C° 0 mm 2 mps 568 mmHg 95%
    04:00 -7°C° 0 mm 2 mps 567 mmHg 95%
    05:00 -6°C° 0.3 mm 2 mps 568 mmHg 95%
    06:00 -3°C° 0.3 mm 1 mps 569 mmHg 95%
    07:00 -2°C° 0.3 mm 1 mps 570 mmHg 95%
    08:00 -2°C° 1.6 mm 1 mps 571 mmHg 95%
    09:00 -4°C° 1.6 mm 2 mps 571 mmHg 96%
    10:00 -4°C° 1.6 mm 2 mps 571 mmHg 96%
    11:00 -4°C° 1 mm 2 mps 571 mmHg 96%
    12:00 -4°C° 1 mm 2 mps 572 mmHg 95%
    13:00 -4°C° 1 mm 2 mps 572 mmHg 95%
    14:00 -3°C° 0.1 mm 2 mps 573 mmHg 94%
    15:00 -3°C° 0.1 mm 2 mps 573 mmHg 93%
    16:00 -2°C° 0.1 mm 2 mps 573 mmHg 93%
    17:00 -2°C° 0 mm 1 mps 573 mmHg 94%
    18:00 -3°C° 0 mm 1 mps 572 mmHg 95%
    19:00 -6°C° 0 mm 1 mps 571 mmHg 96%
    20:00 -7°C° 0 mm 1 mps 571 mmHg 96%
    21:00 -9°C° 0 mm 1 mps 570 mmHg 96%
    22:00 -11°C° 0 mm 1 mps 570 mmHg 96%
    23:00 -11°C° 0 mm 1 mps 570 mmHg 94%
    Show more